This is the latest recevied weather packets stored in our database for station/object WK7G. If no packets are shown the sender has not sent any weather packets the latest 10 day(s).
| Time | Temp. | Humidity | Pressure | Rain* | Wind** | Luminosity | Snow |
|---|---|---|---|---|---|---|---|
| 1777568801 | 7.22° C | 60% | 1014.6 hPa | 0 mm | - | 864 W/m² | - |
| 1777568499 | 6.67° C | 64% | 1014.6 hPa | 0 mm | - | 847 W/m² | - |
| 1777568195 | 6.67° C | 62% | 1014.7 hPa | 0 mm | - | 835 W/m² | - |
| 1777567892 | 6.67° C | 67% | 1014.5 hPa | 0 mm | - | 839 W/m² | - |
| 1777567588 | 6.67° C | 67% | 1014.6 hPa | 0 mm | - | 845 W/m² | - |
| 1777567286 | 5.56° C | 70% | 1014.8 hPa | 0 mm | - | 797 W/m² | - |
| 1777566984 | 6.11° C | 69% | 1014.8 hPa | 0 mm | - | 803 W/m² | - |
| 1777566682 | 5.56° C | 69% | 1014.8 hPa | 0 mm | - | 779 W/m² | - |
| 1777566379 | 5.56° C | 72% | 1014.8 hPa | 0 mm | - | 771 W/m² | - |
| 1777566076 | 5.56° C | 71% | 1014.9 hPa | 0 mm | - | 749 W/m² | - |
| 1777565771 | 5° C | 74% | 1014.9 hPa | 0 mm | - | 730 W/m² | - |
| 1777565468 | 5° C | 74% | 1015.1 hPa | 0 mm | - | 688 W/m² | - |
| 1777565165 | 5° C | 73% | 1014.9 hPa | 0 mm | - | 687 W/m² | - |
| 1777564861 | 4.44° C | 74% | 1014.9 hPa | 0 mm | - | 645 W/m² | - |
| 1777564556 | 4.44° C | 74% | 1015.1 hPa | 0 mm | - | 642 W/m² | - |
| 1777564251 | 4.44° C | 75% | 1014.8 hPa | 0 mm | - | 597 W/m² | - |
| 1777563948 | 3.89° C | 75% | 1014.9 hPa | 0 mm | - | 534 W/m² | - |
| 1777563644 | 3.33° C | 76% | 1015.1 hPa | 0 mm | - | 500 W/m² | - |
| 1777563344 | 3.89° C | 75% | 1015.2 hPa | 0 mm | - | 485 W/m² | - |
| 1777563040 | 3.33° C | 77% | 1015.1 hPa | 0 mm | - | 456 W/m² | - |
| 1777562736 | 3.33° C | 78% | 1015.2 hPa | 0 mm | - | 446 W/m² | - |
| 1777562435 | 3.33° C | 75% | 1014.9 hPa | 0 mm | - | 422 W/m² | - |
| 1777562132 | 3.33° C | 75% | 1014.9 hPa | 0 mm | - | 414 W/m² | - |
| 1777561829 | 2.78° C | 75% | 1015.2 hPa | 0 mm | - | 398 W/m² | - |
| 1777561526 | 3.33° C | 74% | 1014.9 hPa | 0 mm | - | 351 W/m² | - |
* Rain latest hour (hover to see other rain measurements)
** Current wind speed in m/s (hover to see current wind gust speed)